(431095) = 2006 DN168 = 2013 VN7

Discovered at Kitt Peak on 2006-02-27 by Spacewatch.

Orbit

Orbit type: Main Belt

Note: WebGL enabled browser required.

epoch2024-03-31.0
epoch JD2460400.5
perihelion date2023-01-16.78415
perihelion JD2459961.28415
argument of perihelion (°)359.91803
ascending node (°)39.67683
inclination (°)5.72008
eccentricity0.1202573
perihelion distance (AU)2.4367640
Tisserand w.r.t. Jupiter3.3
ΔV w.r.t. Earth (km/sec)9.9
semimajor axis (AU)2.7698597
mean anomaly (°)93.90640
mean daily motion (°/day)0.21380470
aphelion distance (AU)3.103
period (years)4.61
P-vector [x]0.77056591
P-vector [y]0.58482336
P-vector [z]0.25339654
Q-vector [x]-0.63417575
Q-vector [y]0.66382263
Q-vector [z]0.39643491
absolute magnitude17.34
phase slope0.15
uncertainty0
referenceMPEC 2024-D64
observations used113
oppositions10
arc length (days)6565
first opposition used2006
last opposition used2024
residual rms (arc-secs)0.74
perturbers coarse indicatorM-v
perturbers precise indicator003Ek
first observation date used2006-02-27.0
last observation date used2024-02-18.0
computer nameMPCLINUX
Minimum Orbit Intersection Distances (in AU)
for orbit epoch: 2460400.5, reference: E2024-D64
Mercury2.11217
Venus1.71383
Earth1.44477
Mars0.95398
Jupiter2.29834
Saturn6.42318
Uranus15.4538
Neptune27.3799

Observations

117 total observations over interval: 2006 02 27.33139 – 2024 02 18.361969
These data are available for download (format description).

